Location: Gourdan-Polignan
(43.0709°N, 0.5748°E)
Time: 07:41:05
(UTC+00:00)

Cosmos 1833 - Pass Details

Date: 15 May 2026
Orbit: 833 x 865 km, 70.9° (Epoch: 6 June)

Event Time Altitude Azimuth Distance (km) Brightness Sun altitude
Exits shadow 21:44:11 32° 192° (SSW) 1,424 5.0 -21.1°
Maximum altitude 21:46:56 76° 112° (ESE) 869 4.1 -21.4°
Drops below altitude 10° 21:52:33 10° 28° (NNE) 2,457 7.0 -21.9°
Sets 21:55:00 0° 27° (NNE) 3,392 7.8 -22.1°
